Skip Navigation Links
NOAA logo - Click to go to the NOAA homepage
NOAA's National Weather Service
Alaska Aviation Weather Unit
  NWS logo - Click to go to the NWS homepage
Left Navbar Graphic     17 AKDT = 01 GMT

   
NOAA is celebrating 200 years of science, service, and stewardship. Visit the NOAA 200th celebration Web site to learn more.
USA.gov is the U.S. Government's official Web portal to all Federal, state and local government Web resources and services.
Facebook
NWS on Facebook

Important Change Regarding the AAWU Web Presence

 

Over the last several months, the AAWU has been working to navigate its webpages to a nationally supported server. Security, as well as other needs, have necessitated the change.  In the process, we have made an effort to enhance the functionality of our website, as well as some of our products. As of June 27, 2017, aawu.arh.noaa.gov will be discontinued. The new AAWU web address is weather.gov/aawu. It is now live and will run in-parallel with the old site until it is discontinued. Please send any feedback or questions regarding the new webpages to nws.ar.aawu.webauthors@noaa.gov.  Thank you for your patience during this time of transition.
AAWU Home :: Display TAF Add Bookmark
TAF PASI 252324Z 2600/2624 27007KT P6SM -SHRA FEW008 SCT025 OVC060
      TEMPO 2600/2603 6SM -SHRA BR SCT010 BKN025 OVC035
     FM260600 32006KT P6SM VCSH SCT025 BKN070=

METAR PASI 251953Z 31003KT 10SM OVC036 12/11 A2996= METAR PASI 252053Z 25003KT 10SM OVC034 13/11 A2996= METAR PASI 252153Z 26006KT 10SM -RA FEW010 BKN055 OVC070 12/11 A2997= PASI 252208Z 28005KT 10SM -RA FEW010 BKN024 OVC070 13/12 A2997= SPECI PASI 252208Z 28005KT 10SM -RA FEW010 BKN024 OVC070 13/12 A2997 RMK AO2 P0000 T01280117= PASI 252229Z 26006KT 10SM FEW010 SCT024 OVC070 13/11 A2997= SPECI PASI 252229Z 26006KT 10SM FEW010 SCT024 OVC070 13/11 A2997 RMK AO2 RAE23 P0000 T01280106= METAR PASI 252253Z 26009KT 10SM FEW008 SCT024 OVC055 13/11 A2998= METAR PASI 252353Z 26009KT 10SM FEW008 SCT024 OVC070 13/11 A2998= PASI 260012Z 25008KT 10SM FEW008 BKN026 OVC070 12/10 A2999= SPECI PASI 260012Z 25008KT 10SM FEW008 BKN026 OVC070 12/10 A2999 RMK AO2 T01220100= METAR PASI 260053Z 24007KT 10SM -RA FEW008 SCT013 OVC026 12/10 A2999= PASI 260100Z 24007KT 10SM -RA FEW006 OVC013 12/11 A2999= PASI 260100Z 24007KT 10SM -RA FEW006 OVC013 12/11 A2999 RMK AO2 P0000 T01170106=
 Alaska TAF Map

NOAA's National Weather Service
Alaska Aviation Weather Unit
6930 Sand Lake Road
Anchorage, AK 99502-1845
Disclaimer
Credits
Glossary
Privacy Policy
About Us
Career Opportunities
Contact AAWU Internet Services Site last modified: April, 17th 2012